Weather History for KAQW - March, 2012

Change the Weather History Date:

Sunday, March 11, 2012

  Actual Average Record
Temperature  
Mean Temperature 42 °F -  
Max Temperature 57 °F 36 °F 57 °F (2012)
Min Temperature 26 °F 19 °F 7 °F (2005)
Degree Days  
Heating Degree Days 24    
Moisture  
Dew Point 19 °F    
Average Humidity 50    
Maximum Humidity 79    
Minimum Humidity 25    
Precipitation  
Precipitation 0.00 in - - ()
Sea Level Pressure  
Sea Level Pressure 30.36 in    
Wind  
Wind Speed 5 mph (SSE)    
Max Wind Speed 12 mph    
Max Gust Speed 20 mph    
Visibility 10 miles    
Events      
Averages and records for this station are not official NWS values.
T = Trace of Precipitation, MM = Missing Value Source: NWS Daily Summary

Daily Weather History Graph

Daily Weather History Graph

Search for Another Location

Airport or City:

Trip Planner

Search our weather history database for the weather conditions in past years. The results will help you decide how hot, cold, wet, or windy it might be!

Date:

Astronomy

Mar. 11, 2012 Rise Set
Actual Time 7:10 AM EDT 6:54 PM EDT
Civil Twilight 6:42 AM EDT 7:23 PM EDT
Nautical Twilight 6:09 AM EDT 7:55 PM EDT
Astronomical Twilight 5:36 AM EDT 8:29 PM EDT
Moon 11:23 PM EDT (3/11) 8:37 AM EDT (3/11)
Length of Visible Light 12h 40m
Length of Day
11h 44m
Waning Gibbous, 85% of the Moon is Illuminated
Mar 11
Waning Gibbous
Mar 14
Last Quarter
Mar 22
New
Mar 30
First Quarter
Apr 6
Full

Hourly Weather History & Observations

Time (EDT) Temp. Windchill Dew Point Humidity Pressure Visibility Wind Dir Wind Speed Gust Speed Precip Events Conditions
12:52 AM 26.1 °F 20.5 °F 16.0 °F 66% 30.47 in 10.0 mi East 4.6 mph - N/A   Clear
1:52 AM 26.1 °F 20.5 °F 16.0 °F 66% 30.46 in 10.0 mi East 4.6 mph - N/A   Clear
3:52 AM 26.1 °F 16.2 °F 15.1 °F 63% 30.44 in 10.0 mi ESE 10.4 mph - N/A   Clear
4:52 AM 26.1 °F 19.4 °F 15.1 °F 63% 30.43 in 10.0 mi SE 5.8 mph - N/A   Clear
5:52 AM 26.1 °F 18.4 °F 14.0 °F 60% 30.43 in 10.0 mi SE 6.9 mph - N/A   Clear
6:52 AM 27.0 °F 20.5 °F 12.9 °F 56% 30.42 in 10.0 mi ESE 5.8 mph - N/A   Clear
7:52 AM 28.0 °F 22.8 °F 12.9 °F 53% 30.42 in 10.0 mi SE 4.6 mph - N/A   Clear
8:52 AM 32.0 °F 27.5 °F 12.9 °F 45% 30.42 in 10.0 mi SE 4.6 mph - N/A   Clear
9:52 AM 39.0 °F 36.8 °F 12.9 °F 34% 30.40 in 10.0 mi East 3.5 mph - N/A   Clear
10:52 AM 43.0 °F - 12.9 °F 30% 30.39 in 10.0 mi Calm Calm - N/A   Clear
11:52 AM 48.0 °F - 15.1 °F 27% 30.37 in 10.0 mi Variable 5.8 mph - N/A   Clear
12:52 PM 51.1 °F - 18.0 °F 27% 30.34 in 10.0 mi SW 8.1 mph - N/A   Clear
1:52 PM 53.1 °F - 19.9 °F 27% 30.31 in 10.0 mi SW 11.5 mph 19.6 mph N/A   Clear
2:52 PM 55.0 °F - 19.9 °F 25% 30.29 in 10.0 mi SW 9.2 mph 16.1 mph N/A   Clear
4:52 PM 57.9 °F - 21.9 °F 25% 30.27 in 10.0 mi West 11.5 mph - N/A   Clear
5:52 PM 57.0 °F - 21.9 °F 26% 30.27 in 10.0 mi West 9.2 mph - N/A   Clear
6:52 PM 46.0 °F 44.8 °F 27.0 °F 47% 30.27 in 10.0 mi West 3.5 mph - N/A   Clear
7:52 PM 39.9 °F - 26.1 °F 58% 30.29 in 10.0 mi Calm Calm - N/A   Clear
8:52 PM 35.1 °F - 27.0 °F 72% 30.30 in 10.0 mi Calm Calm - N/A   Clear
9:52 PM 35.1 °F - 25.0 °F 67% 30.30 in 10.0 mi Calm Calm - N/A   Clear
10:52 PM 36.0 °F - 25.0 °F 64% 30.30 in 10.0 mi Calm Calm - N/A   Clear
11:52 PM 30.9 °F - 25.0 °F 79% 30.30 in 10.0 mi Calm Calm - N/A   Clear
12:52 AM 32.0 °F 27.5 °F 25.0 °F 75% 30.30 in 10.0 mi East 4.6 mph - N/A   Clear